This is the latest recevied weather packets stored in our database for station/object KC1IUC-15. If no packets are shown the sender has not sent any weather packets the latest 10 day(s).
| Time | Temp. | Humidity | Pressure | Rain* | Wind** | Luminosity | Snow |
|---|---|---|---|---|---|---|---|
| 1787873404 | 23.33° C | 80% | 1013.7 hPa | 0 mm | - | 2 W/m² | - |
| 1787873104 | 23.33° C | 79% | 1014 hPa | 0 mm | - | 5 W/m² | - |
| 1787872804 | 23.33° C | 79% | 1013.7 hPa | 0 mm | - | 7 W/m² | - |
| 1787872504 | 23.33° C | 78% | 1013.7 hPa | 0 mm | - | 10 W/m² | - |
| 1787872204 | 23.33° C | 78% | 1014 hPa | 0 mm | - | 15 W/m² | - |
| 1787871904 | 23.33° C | 77% | 1014 hPa | 0 mm | - | 28 W/m² | - |
| 1787871604 | 23.89° C | 77% | 1014 hPa | 0 mm | - | 33 W/m² | - |
| 1787871304 | 23.89° C | 76% | 1014 hPa | 0 mm | - | 45 W/m² | - |
| 1787871004 | 23.89° C | 76% | 1014 hPa | 0 mm | - | 47 W/m² | - |
| 1787870704 | 23.89° C | 75% | 1014.4 hPa | 0 mm | - | 55 W/m² | - |
| 1787870404 | 24.44° C | 74% | 1014 hPa | 0 mm | - | 66 W/m² | - |
| 1787870104 | 24.44° C | 73% | 1014 hPa | 0 mm | - | 66 W/m² | - |
| 1787869804 | 24.44° C | 72% | 1014 hPa | 0 mm | - | 90 W/m² | - |
| 1787869504 | 24.44° C | 73% | 1013.7 hPa | 0 mm | - | 88 W/m² | - |
| 1787869204 | 24.44° C | 73% | 1013.7 hPa | 0 mm | - | 88 W/m² | - |
| 1787868904 | 23.89° C | 72% | 1014 hPa | 0 mm | - | 95 W/m² | - |
| 1787868604 | 23.89° C | 73% | 1014 hPa | 0 mm | - | 94 W/m² | - |
| 1787868311 | 23.89° C | 72% | 1014 hPa | 0 mm | - | 81 W/m² | - |
| 1787868004 | 23.89° C | 72% | 1014 hPa | 0 mm | - | 86 W/m² | - |
| 1787867704 | 23.89° C | 72% | 1014 hPa | 0 mm | - | 84 W/m² | - |
| 1787867404 | 24.44° C | 71% | 1014 hPa | 0 mm | - | 70 W/m² | - |
| 1787867104 | 24.44° C | 70% | 1014 hPa | 0 mm | - | 61 W/m² | - |
| 1787866804 | 25° C | 69% | 1014 hPa | 0 mm | - | 64 W/m² | - |
| 1787866504 | 25° C | 69% | 1014.4 hPa | 0 mm | - | 96 W/m² | - |
| 1787866204 | 25° C | 70% | 1014.7 hPa | 0 mm | - | 125 W/m² | - |
* Rain latest hour (hover to see other rain measurements)
** Current wind speed in m/s (hover to see current wind gust speed)